STARLINK-35202 (65647 NORAD) Tracking and Keplerian Element Data

This shows tracking and keplerian element data for the satellite.

Feedback or suggestion? Click here.




ElementValue
Catalog65647
NameSTARLINK-35202
Epoch Orbit1555
Epoch Day354.16857854
Epoch Year2025
RAAN316.6144
Inclination53.1614
Eccentricity0.0001189
Argument of Perigee84.1113
Mean Anonmoly276.0024
Mean Motion15.30201789
Decay Rate0.00016922
L11 65647U 25210AB 25354.16857854 .00016922 00000+0 58213-3 0 9992
L22 65647 53.1614 316.6144 0001189 84.1113 276.0024 15.30201789 15555



Live tracking and technical data element details for STARLINK-35202 (NORAD 65647). STARLINK-35202 can be tracked NOW for your location showing map with azimuth and elevation plus other details from your city location.







IsCatalogInMostPopularTable: catalog: 65647, numindb: 4
Update: records affected: 1



GetName: 65647 STARLINK-35202

Hit Count: updated at: Wed, 11 Feb 2026 15:31:00 GMT